Location: Alfortville
(48.8058°N, 2.4204°E)
Time: 02:31:28
(UTC+00:00)

Envisat - Pass Details

Date: 29 November 2022
Orbit: 763 x 765 km, 98.2° (Epoch: 28 January)

Event Time Altitude Azimuth Distance (km) Brightness Sun altitude
Rises 03:28:50 0° 20° (NNE) 3,246 6.6 -37.1°
Reaches altitude 10° 03:31:19 10° 29° (NNE) 2,314 5.8 -36.7°
Enters shadow 03:33:41 24° 47° (NE) 1,551 5.0 -36.4°
